Location: Cabri�res
(43.7840°N, 5.4986°E)
Time: 03:15:11
(UTC+00:00)

BREEZE-M DEB (TANK) - Pass Details

Date: 09 April 2020
Orbit: 317 x 11715 km, 49.7° (Epoch: 02 June)

Event Time Altitude Azimuth Distance (km) Brightness Sun altitude
Rises 19:32:38 0° 220° (SW) 5,205 8.5 -14.1°
Reaches altitude 10° 19:37:36 10° 213° (SSW) 2,986 7.1 -14.9°
Maximum altitude 19:42:47 32° 152° (SSE) 976 4.1 -15.7°
Enters shadow 19:43:15 30° 135° (SE) 944 4.0 -15.8°
